This is the latest recevied weather packets stored in our database for station/object KC3BAN-3. If no packets are shown the sender has not sent any weather packets the latest 10 day(s).
| Time | Temp. | Humidity | Pressure | Rain* | Wind** | Luminosity | Snow |
|---|---|---|---|---|---|---|---|
| 1777911067 | 21.11° C | 61% | 1017.3 hPa | 0 mm | - | - | - |
| 1777910766 | 20.56° C | 61% | 1017.3 hPa | 0 mm | - | - | - |
| 1777910467 | 20.56° C | 63% | 1017.5 hPa | 0 mm | - | - | - |
| 1777910166 | 20.56° C | 61% | 1017.5 hPa | 0 mm | - | - | - |
| 1777909868 | 20.56° C | 64% | 1017.5 hPa | 0 mm | - | - | - |
| 1777909569 | 20° C | 65% | 1017.6 hPa | 0 mm | - | - | - |
| 1777909266 | 20° C | 65% | 1017.5 hPa | 0 mm | - | - | - |
| 1777908965 | 20° C | 64% | 1017.6 hPa | 0 mm | - | - | - |
| 1777908666 | 20° C | 66% | 1017.6 hPa | 0 mm | - | - | - |
| 1777908367 | 20° C | 67% | 1017.6 hPa | 0 mm | - | - | - |
| 1777908066 | 19.44° C | 68% | 1017.7 hPa | 0 mm | - | - | - |
| 1777907769 | 19.44° C | 67% | 1017.7 hPa | 0 mm | - | - | - |
| 1777907465 | 19.44° C | 68% | 1017.7 hPa | 0 mm | - | - | - |
| 1777907168 | 19.44° C | 71% | 1017.6 hPa | 0 mm | - | - | - |
| 1777906866 | 18.89° C | 72% | 1017.6 hPa | 0 mm | - | - | - |
| 1777906566 | 18.89° C | 70% | 1017.6 hPa | 0 mm | - | - | - |
| 1777906265 | 18.89° C | 71% | 1017.6 hPa | 0 mm | - | - | - |
| 1777905966 | 18.89° C | 71% | 1017.6 hPa | 0 mm | - | - | - |
| 1777905666 | 18.33° C | 70% | 1017.7 hPa | 0 mm | - | - | - |
| 1777905369 | 18.33° C | 71% | 1017.7 hPa | 0 mm | - | - | - |
| 1777905063 | 18.33° C | 71% | 1017.7 hPa | 0 mm | - | - | - |
| 1777904889 | 18.33° C | 73% | 1017.7 hPa | 0 mm | - | - | - |
| 1777904450 | 17.78° C | 73% | 1017.7 hPa | 0 mm | - | - | - |
| 1777904147 | 17.78° C | 72% | 1017.8 hPa | 0 mm | - | - | - |
| 1777903841 | 18.33° C | 73% | 1017.7 hPa | 0 mm | - | - | - |
* Rain latest hour (hover to see other rain measurements)
** Current wind speed in m/s (hover to see current wind gust speed)